Tracking 29892 objects as of 21-Nov-2024
HD Live streaming from Space Station
objects crossing your sky now

STARLINK-5322

Track STARLINK-5322 now!
10-day predictions
STARLINK-5322 is classified as:


NORAD ID: 55303
Int'l Code: 2023-010AL
Perigee: 577.2 km
Apogee: 581.2 km
Inclination: 70.0 °
Period: 96.1 minutes
Semi major axis: 6950 km
RCS: Unknown
Launch date: January 19, 2023
Source: United States (US)
Launch site: AIR FORCE WESTERN TEST RANGE (AFWTR)
Your satellite tracking list
Your tracking list is empty




NASA's NSSDC Master Catalog

Two Line Element Set (TLE):
1 55303U 23010AL  24325.51289220  .00000503  00000-0  49943-4 0  9998
2 55303  69.9981 159.8263 0002837 270.2797  89.8037 14.98335105101453
Source of the keplerian elements: AFSPC